User: anonymous
Location: Unspecified
(0.0000°N, 0.0000°E)
Time: 21:53:32
(UTC+00:00)
Language:

AMOS 1 - Orbit

View from above orbital plane
View from above orbital plane
View from above satellite
View from above satellite

Ground track
Ground track

The orbit data is extracted from the following two-line orbital elements,

1 23865U 96030B   14261.62696531 -.00000131  00000-0  00000+0 0  1597
2 23865 005.2417 061.4868 0013620 090.6135 269.4233 00.97117846 66918
Epoch (UTC): 18 September 2014 15:02:49
Eccentricity: 0.0013620
inclination: 5.2417°
perigee height: 36635 km
apogee height: 36753 km
right ascension of ascending node: 61.4868°
argument of perigee: 90.6135°
revolutions per day: 0.97117846
mean anomaly at epoch: 269.4233°
orbit number at epoch: 6691

The dashed part of the orbit path shows where the satellite is in the earth's shadow,  

DLR